Location: Coopersdale
(40.3556°N, 78.9372°W)
Time: 08:32:17
(UTC+00:00)

Envisat - Pass Details

Date: 04 December 2020
Orbit: 764 x 766 km, 98.1° (Epoch: 15 January)

Event Time Altitude Azimuth Distance (km) Brightness Sun altitude
Rises 10:09:23 0° 27° (NNE) 3,240 6.5 -24.8°
Reaches altitude 10° 10:12:11 10° 42° (NE) 2,308 5.9 -24.2°
Maximum altitude 10:16:09 23° 94° (E) 1,601 5.4 -23.5°
Drops below altitude 10° 10:20:05 10° 145° (SE) 2,294 6.1 -22.7°
Sets 10:22:50 0° 160° (SSE) 3,215 6.7 -22.2°
